This demonstration page uses our WeatherBlox Daily Observations layout. Learn more.

Left ArrowRight Arrow

39.08367, -84.50855

Hourly Observations for July 13, 2015

Temp ( °F °C ) Dew Point ( °F °C ) Humidity (%) Winds ( mph kmh ) Pressure ( in mb ) Visibility ( mi km ) Precip ( " mm )
1:53 am 01:53 Clear 69 20.6 68 20 96 96 Calm 29.91 1013 7 11 0.00 0.00
2:53 am 02:53 Clear 69 20.6 67 19.4 93 93 NW 5 7 29.89 1012 9 14 0.00 0.00
3:53 am 03:53 Partly Cloudy 68 20 66 18.9 93 93 Calm 29.88 1012 9 14 0.00 0.00
4:43 am 04:43 Mostly Cloudy 68 20 66 18.9 93 93 Calm 29.91 1013 10 16 0.00 0.00
4:53 am 04:53 Cloudy 68 20 66 18.9 93 93 NW 5 7 29.89 1012 10 16 0.00 0.00
5:53 am 05:53 Cloudy 67 19.4 66 18.9 97 97 NNE 6 9 29.88 1012 10 16 0.00 0.00
6:53 am 06:53 Cloudy 68 20 65 18.3 90 90 N 3 6 29.88 1012 10 16 0.00 0.00
7:53 am 07:53 Cloudy 68 20 66 18.9 93 93 Calm 29.89 1012 10 16 0.00 0.00
8:53 am 08:53 Cloudy 69 20.6 66 18.9 90 90 E 3 6 29.90 1012 9 14 0.00 0.00
9:53 am 09:53 Cloudy 71 21.7 67 19.4 87 87 S 3 6 29.90 1012 9 14 0.00 0.00
10:53 am 10:53 Mostly Cloudy 73 22.8 69 20.6 87 87 S 5 7 29.88 1012 10 16 0.00 0.00
11:04 am 11:04 Mostly Cloudy 73 23 70 21 89 89 S 5 7 29.88 1012 10 16 0.00 0.00
11:53 am 11:53 Partly Cloudy 77 25 71 21.7 82 82 S 5 7 29.85 1011 10 16 0.00 0.00
12:53 pm 12:53 Partly Cloudy 80 26.7 73 22.8 79 79 SSE 3 6 29.84 1011 10 16 0.00 0.00
1:20 pm 13:20 Partly Cloudy with Nearby Thunderstorms 81 27 73 23 79 79 S 6 9 29.83 1010 10 16 0.00 0.00
1:28 pm 13:28 Partly Cloudy with Thunderstorms 81 27 73 23 79 79 SSE 3 6 29.85 1011 10 16 0.00 0.00
1:44 pm 13:44 Mostly Cloudy with Strong Thunderstorms 70 21 70 21 100 100 N 36 57 29.91 1013 2 3 0.00 0.00
1:51 pm 13:51 Cloudy with Strong Thunderstorms 66 19 66 19 100 100 N 23 37 29.91 1013 1 1 0.50 12.70
2:13 pm 14:13 Mostly Cloudy with Rain 66 19 N/A N/A ENE 10 17 29.91 1013 3 4 0.24 6.10
2:21 pm 14:21 Mostly Cloudy with Rain 66 19 N/A N/A ENE 9 15 29.91 1013 8 13 0.25 6.35
2:53 pm 14:53 Mostly Cloudy with Thunderstorms 66 19 N/A N/A ENE 6 9 29.86 1011 5 8 0.33 8.38
3:07 pm 15:07 Mostly Cloudy with Rain 66 19 N/A N/A E 5 7 29.83 1010 6 10 0.03 0.76
3:53 pm 15:53 Partly Cloudy 66 19 N/A N/A Calm 29.78 1009 10 16 0.06 1.52
4:53 pm 16:53 Mostly Sunny 70 21 N/A N/A SSW 8 13 29.79 1009 10 16 0.00 0.00
5:53 pm 17:53 Mostly Cloudy 72 22.2 72 22.2 100 100 SSW 9 15 29.78 1008 10 16 0.00 0.00
6:53 pm 18:53 Mostly Sunny 75 23.9 70 21.1 84 84 SSW 7 11 29.76 1008 10 16 0.00 0.00
7:53 pm 19:53 Mostly Sunny 74 23.3 68 20 82 82 S 7 11 29.75 1008 10 16 0.00 0.00
8:53 pm 20:53 Mostly Cloudy 73 22.8 68 20 84 84 S 7 11 29.75 1008 10 16 0.00 0.00
9:53 pm 21:53 Partly Cloudy 71 21.7 68 20 90 90 S 8 13 29.73 1007 10 16 0.00 0.03
10:53 pm 22:53 Mostly Clear 71 21.7 68 20 90 90 S 10 17 29.70 1006 10 16 0.00 0.00
11:44 pm 23:44 Mostly Cloudy with Nearby Thunderstorms 72 22 70 21 94 94 SSW 7 11 29.71 1006 9 14 0.00 0.00
11:53 pm 23:53 Cloudy with Nearby Thunderstorms 71 21.7 69 20.6 94 94 SW 7 11 29.70 1006 5 8 0.04 1.02

Powered by AerisWeather